Location: Unspecified
(0.0000°N, 0.0000°E)
Time: 23:29:14
(UTC+00:00)

Hubble Space Telescope - Pass Details

Date: 15 February 2020
Orbit: 536 x 540 km, 28.5° (Epoch: 26 February)

Event Time Altitude Azimuth Distance (km) Brightness Sun altitude
Rises 19:43:33 0° 281° (WNW) 2,673 5.4 -21.8°
Reaches altitude 10° 19:47:55 10° 325° (NW) 1,780 3.7 -22.8°
Maximum altitude 19:48:32 10° 333° (NNW) 1,762 3.5 -23.0°
Drops below altitude 10° 19:49:09 10° 342° (NNW) 1,779 3.4 -23.1°
Enters shadow 19:49:32 10° 347° (NNW) 1,808 3.4 -23.2°
